This demonstration page uses our WeatherBlox Daily Observations layout. Learn more.

Left ArrowRight Arrow

47.50024, -111.30081

Hourly Observations for January 11, 2020

Temp ( °F °C ) Dew Point ( °F °C ) Humidity (%) Winds ( mph kmh ) Pressure ( in mb ) Visibility ( mi km ) Precip ( " mm )
12:53 am 00:53 Clear 31 -0.6 19 -7.2 61 61 SSW 21 33 29.72 1006 10 16 0.00 0.00
1:53 am 01:53 Clear 32 0 20 -6.7 61 61 SW 24 39 29.72 1007 10 16 0.00 0.00
2:53 am 02:53 Clear 32 0 19 -7.2 59 59 SSW 18 30 29.72 1006 10 16 0.00 0.00
3:53 am 03:53 Clear 30 -1.1 18 -7.8 61 61 SSW 20 31 29.72 1007 10 16 0.00 0.00
4:53 am 04:53 Clear 30 -1.1 18 -7.8 61 61 SSW 12 19 29.73 1007 10 16 0.00 0.00
5:53 am 05:53 Mostly Clear 30 -1.1 18 -7.8 61 61 SSW 14 22 29.73 1007 10 16 0.00 0.00
6:53 am 06:53 Clear 30 -1.1 18 -7.8 61 61 SSW 15 24 29.72 1006 10 16 0.00 0.00
7:53 am 07:53 Partly Cloudy 31 -0.6 18 -7.8 59 59 SSW 17 28 29.71 1006 10 16 0.00 0.00
8:53 am 08:53 Cloudy 31 -0.6 18 -7.8 59 59 SSW 17 28 29.72 1006 10 16 0.00 0.00
9:53 am 09:53 Cloudy 33 0.6 18 -7.8 54 54 SSW 16 26 29.72 1007 10 16 0.00 0.00
10:53 am 10:53 Cloudy 35 1.7 18 -7.8 50 50 SSW 18 30 29.71 1006 10 16 0.00 0.00
11:53 am 11:53 Cloudy 36 2.2 18 -7.8 48 48 SSW 20 31 29.70 1006 10 16 0.00 0.00
12:53 pm 12:53 Cloudy 38 3.3 19 -7.2 46 46 SW 20 31 29.67 1005 10 16 0.00 0.00
1:53 pm 13:53 Mostly Sunny 40 4.4 18 -7.8 41 41 SW 18 30 29.65 1004 10 16 0.00 0.00
2:53 pm 14:53 Mostly Sunny 38 3.3 17 -8.3 43 43 SW 20 31 29.65 1004 10 16 0.00 0.00
3:53 pm 15:53 Mostly Sunny 36 2.2 18 -7.8 48 48 SW 17 28 29.66 1005 10 16 0.00 0.00
4:53 pm 16:53 Partly Cloudy 35 1.7 18 -7.8 50 50 SW 17 28 29.66 1004 10 16 0.00 0.00
5:53 pm 17:53 Clear 33 0.6 18 -7.8 54 54 SW 14 22 29.68 1005 10 16 0.00 0.00
6:53 pm 18:53 Mostly Clear 32 0 18 -7.8 56 56 SW 16 26 29.68 1005 10 16 0.00 0.00
7:53 pm 19:53 Clear 31 -0.6 18 -7.8 59 59 SSW 15 24 29.68 1005 10 16 0.00 0.00
8:53 pm 20:53 Clear 31 -0.6 18 -7.8 59 59 SW 15 24 29.67 1005 10 16 0.00 0.00
9:53 pm 21:53 Clear 30 -1.1 18 -7.8 61 61 SSW 12 19 29.67 1005 10 16 0.00 0.00
10:53 pm 22:53 Clear 31 -0.6 20 -6.7 64 64 SW 16 26 29.66 1005 10 16 0.00 0.00
11:53 pm 23:53 Clear 32 0 20 -6.7 61 61 SW 16 26 29.67 1005 10 16 0.00 0.00

Powered by AerisWeather